Pope Field Airport, NC

4:34 PM EDT on May 24, 2018 (GMT -0400)
Pope Field Airport

Weather History for KPOB - February, 2014

Change the Weather History Date:

Thursday, February 20, 2014

  Actual Average Record
Temperature  
Mean Temperature 64 °F -  
Max Temperature 78 °F 60 °F 81 °F (1991)
Min Temperature 51 °F 38 °F 6 °F (2015)
Growing Degree Days 14 (Base 50)    
Moisture  
Dew Point 53 °F    
Average Humidity 80    
Maximum Humidity 100    
Minimum Humidity 41    
Precipitation  
Precipitation 0.00 in - - ()
Sea Level Pressure  
Sea Level Pressure 30.10 in    
Wind  
Wind Speed 3 mph (SSE)    
Max Wind Speed 16 mph    
Max Gust Speed 24 mph    
Visibility 9 miles    
Events      
Averages and records for this station are not official NWS values.
T = Trace of Precipitation, MM = Missing Value Source: NWS Daily Summary

Daily Weather History Graph

Daily Weather History Graph

Search for Another Location

Airport or City:

Astronomy

Feb. 20, 2014 Rise Set
Actual Time 6:56 AM EST 6:03 PM EST
Civil Twilight 6:30 AM EST 6:29 PM EST
Nautical Twilight 6:01 AM EST 6:58 PM EST
Astronomical Twilight 5:31 AM EST 7:28 PM EST
Moon 11:41 PM EST (2/20) 9:51 AM EST (2/20)
Length of Visible Light 11h 58m
Length of Day
11h 06m
Waning Gibbous, 71% of the Moon is Illuminated
Feb 20
Waning Gibbous
Feb 22
Last Quarter
Mar 1
New
Mar 8
First Quarter
Mar 16
Full

Hourly Weather History & Observations

Time (EST) Temp. Dew Point Humidity Pressure Visibility Wind Dir Wind Speed Gust Speed Precip Events Conditions
12:33 AM 51.8 °F 51.8 °F 100% 30.09 in 9.0 mi Calm Calm - N/A   Clear
12:38 AM 51.8 °F 51.8 °F 100% 30.09 in 9.0 mi Calm Calm - N/A   Clear
12:48 AM 51.8 °F 51.8 °F 100% 30.09 in 9.0 mi Calm Calm - N/A   Partly Cloudy
12:53 AM 51.8 °F 51.8 °F 100% 30.08 in 5.0 mi Calm Calm - N/A   Partly Cloudy
12:58 AM 51.1 °F 50.9 °F 99% 30.08 in 2.5 mi Calm Calm - N/A   Partly Cloudy
1:03 AM 51.8 °F 50.0 °F 94% 30.08 in 3.0 mi Calm Calm - N/A   Partly Cloudy
1:08 AM 51.8 °F 50.0 °F 94% 30.09 in 4.0 mi Calm Calm - N/A   Partly Cloudy
1:13 AM 51.8 °F 50.0 °F 94% 30.09 in 5.0 mi Calm Calm - N/A   Partly Cloudy
1:18 AM 51.8 °F 50.0 °F 94% 30.09 in 8.0 mi Calm Calm - N/A   Clear
1:23 AM 51.8 °F 50.0 °F 94% 30.09 in 10.0 mi Calm Calm - N/A   Partly Cloudy
1:58 AM 52.9 °F 51.3 °F 94% 30.13 in 10.0 mi Calm Calm - N/A   Overcast
2:58 AM 54.1 °F 52.3 °F 94% 30.12 in 10.0 mi East 3.5 mph - N/A   Partly Cloudy
3:58 AM 51.1 °F 50.5 °F 98% 30.13 in 10.0 mi North 2.3 mph - N/A   Scattered Clouds
4:58 AM 53.4 °F 51.3 °F 92% 30.16 in 10.0 mi WNW 1.2 mph - N/A   Scattered Clouds
5:58 AM 53.2 °F 50.7 °F 91% 30.16 in 10.0 mi ENE 3.5 mph - N/A   Partly Cloudy
6:58 AM 53.1 °F 49.6 °F 88% 30.17 in 10.0 mi East 3.5 mph - N/A   Partly Cloudy
7:58 AM 57.4 °F 51.6 °F 81% 30.19 in 10.0 mi SE 5.8 mph - N/A   Overcast
8:58 AM 58.1 °F 52.7 °F 82% 30.21 in 10.0 mi Variable 4.6 mph - N/A   Mostly Cloudy
9:58 AM 59.9 °F 51.8 °F 75% 30.20 in 10.0 mi East 5.8 mph - N/A   Clear
10:58 AM 62.8 °F 51.1 °F 66% 30.18 in 10.0 mi East 5.8 mph - N/A   Clear
11:58 AM 65.1 °F 51.3 °F 61% 30.16 in 10.0 mi ESE 5.8 mph - N/A   Clear
12:58 PM 67.8 °F 52.0 °F 57% 30.12 in 10.0 mi SE 5.8 mph - N/A   Clear
1:58 PM 71.1 °F 54.0 °F 55% 30.08 in 10.0 mi Variable 4.6 mph - N/A   Clear
2:58 PM 75.6 °F 56.8 °F 52% 30.06 in 10.0 mi SSW 8.1 mph - 0.00 in   Clear
3:58 PM 78.6 °F 54.1 °F 43% 30.04 in 10.0 mi SW 16.1 mph 20.7 mph N/A   Partly Cloudy
4:58 PM 78.8 °F 53.1 °F 41% 30.04 in 10.0 mi SW 15.0 mph 24.2 mph N/A   Clear
5:58 PM 75.9 °F 52.9 °F 45% 30.05 in 10.0 mi SW 10.4 mph - N/A   Clear
6:58 PM 73.0 °F 54.3 °F 52% 30.05 in 10.0 mi SSW 6.9 mph - N/A   Clear
7:58 PM 70.7 °F 61.3 °F 72% 30.05 in 10.0 mi South 8.1 mph 17.3 mph N/A   Clear
8:58 PM 68.9 °F 60.8 °F 75% 30.06 in 10.0 mi SSW 13.8 mph 18.4 mph N/A   Clear
9:58 PM 67.5 °F 60.4 °F 78% 30.06 in 10.0 mi SSW 10.4 mph 19.6 mph N/A   Clear
10:58 PM 66.6 °F 61.0 °F 82% 30.06 in 10.0 mi SSW 11.5 mph - N/A   Clear
11:58 PM 65.8 °F 62.2 °F 88% 30.03 in 10.0 mi SSW 11.5 mph 18.4 mph N/A   Clear